Location: Navajo
(48.7922°N, 105.0603°W)
Time: 16:30:48
(UTC+00:00)

ITUPSAT 1 - Pass Details

Date: 02 July 2022
Orbit: 701 x 711 km, 98.6° (Epoch: 13 August)

Event Time Altitude Azimuth Distance (km) Brightness Sun altitude
Rises 05:05:20 0° 2° (N) 3,112 ? -13.4°
Reaches altitude 10° 05:08:15 10° 343° (NNW) 2,191 ? -13.6°
Maximum altitude 05:11:22 18° 303° (WNW) 1,727 ? -13.9°
Drops below altitude 10° 05:14:29 10° 262° (W) 2,185 ? -14.1°
Sets 05:17:24 0° 243° (WSW) 3,101 ? -14.3°
